Location: Apeadero de Los Molinos-Guadarrama
(40.7091°N, 4.0689°W)
Time: 21:05:06
(UTC+00:00)

N. Korean satellite - Visible Passes

Search period start: 21 September 2021 00:00
Search period end: 01 October 2021 00:00
Orbit: 448 x 498 km, 97.3° (Epoch: 20 September)

Date Brightness Start Highest point End Pass type
(mag) Time Alt. Az. Time Alt. Az. Time Alt. Az.
21 Sep 7.1 05:25:27 10° NNE 05:28:57 64° E 05:32:29 10° S visible
22 Sep 8.9 04:58:06 10° NE 05:01:08 27° E 05:04:12 10° SSE visible
23 Sep 9.9 04:31:42 10° ENE 04:33:12 12° E 04:34:44 10° ESE visible
24 Sep 6.6 05:35:21 10° NNE 05:38:54 89° ESE 05:42:29 10° SSW visible
25 Sep 8.3 05:07:47 10° NNE 05:11:06 36° E 05:14:27 10° SSE visible
26 Sep 9.7 04:40:52 10° NE 04:43:12 16° E 04:45:34 10° SE visible
28 Sep 7.6 05:17:30 10° NNE 05:21:01 50° E 05:24:32 10° S visible
29 Sep 9.3 04:50:17 10° NE 04:53:08 22° E 04:55:59 10° SSE visible
